Location: Kerb�bon
(47.7970°N, 3.3487°W)
Time: 13:12:59
(UTC+00:00)

Ariane Rocket - Pass Details

Date: 12 May 2021
Orbit: 761 x 769 km, 98.7° (Epoch: 18 June)

Event Time Altitude Azimuth Distance (km) Brightness Sun altitude
Rises 20:13:41 0° 163° (SSE) 3,210 5.7 -5.4°
Reaches altitude 10° 20:15:58 10° 164° (SSE) 2,290 5.0 -5.8°
Maximum altitude 20:21:01 90° 258° (WSW) 770 3.1 -6.4°
Drops below altitude 10° 20:26:08 10° 345° (NNW) 2,312 6.4 -7.1°
Sets 20:28:27 0° 346° (NNW) 3,243 7.2 -7.4°
